Track YAOGAN-30 E now! 10-day predictions YAOGAN-30 E is classified as:
1 43029U 17075B 25346.30840046 .00006065 00000-0 46167-3 0 9997 2 43029 34.9957 328.3061 0002320 18.1717 341.9073 15.01480266439244